Location: Unspecified
(52.4292°N, 19.3359°E)
Time: 15:57:41
(UTC+02:00)

Transit 2A Rocket - Pass Details

Date: 27 May 2024
Orbit: 583 x 910 km, 66.7° (Epoch: 14 June)

Event Time Altitude Azimuth Distance (km) Brightness Sun altitude
Rises 12:10:01 0° 318° (NW) 3,416 8.1 58.5°
Reaches altitude 10° 12:12:29 10° 314° (NW) 2,514 7.5 58.5°
Maximum altitude 12:18:09 51° 240° (WSW) 1,116 6.8 58.7°
Drops below altitude 10° 12:24:00 10° 167° (SSE) 2,590 8.4 58.8°
Sets 12:26:35 0° 162° (SSE) 3,526 8.9 58.9°
